Погода Ачисай

Погода Ачисай : погода сейчас, прогноз погоды и архив. Всё, что Вы хотите узнать о погоде Ачисай!

Поиск расширенной информации на нашем сайте:

Другие новости

Новости СМИ2

Главная страница сайта

Новости сайта

03.07.2017

Напоминаем, что на нашем специализированном сайте Метеоцентр.Азия вы можете получить высокодетализированные автоматические прогнозы погоды по пунктам России, СНГ и мира в авиационном формате (включающие направление и скорость ветра, видимость, явления погоды, количество и форму облачности, нижнюю и верхнюю границу облачности).


Погода Ачисай - сегодня

Время (UTC), дата Ветер
(°,м/с) 
Видим.   Явления Облачность Т
(°С)
Тd
(°С)
f(%) Тe
(°С)
Pmin
(гПа)
dP
(гПа)
Po
(мм)
O2
(г/м3)
Тmin Tmax R s Состояние
почвы
12 20.10.17 110 (В) 20000 м    ясно 
+14.9 -1.9 31 +16  1019.7  -1  695  265           
15 20.10.17 070 (В) 20000 м    ясно 
+13.5 -2.5 33 +14  1019  -1.1  694  267    +17.8       
18 20.10.17 050 (СВ) 20000 м    ясно 
+12.6 -1.4 38 +13  1017.6  -1.5  693  267    +17.8       
21 20.10.17 360 (С) 20000 м    ясно 
+11.2 -1.2 42 +12  1016.2  -1.7  691  268           
00 21.10.17 290 (З) 20000 м    ясно 
+8.1 +2.1 66 +9  1015.5  -1.5  690  270           
03 21.10.17 тихо ()   20000 м    10/3 1000 м верхняя 
[Sc|Ci sp]
+8 +3.2 72 +8  1015.4  -0.1  690  270           
06 21.10.17 140 (ЮВ) 20000 м    10/0 верхняя 
[Ci sp]
+13.1 +4.1 54 +14  1013.5  -0.2  690  265  +7.2         
09 21.10.17 140 (ЮВ) 20000 м    3/0 верхняя 
[Ci sp]
+14.1 +4.6 53 +15  1012.4  -0.6  690  263           
12 21.10.17 180 (Ю) 20000 м    3/0 верхняя 
[Ci sp]
+12 +4 58 +13  1014.5  1.1  690  266           
15 21.10.17 160 (Ю) 20000 м    ясно 
+10.6 +3 59 +11  1016.8  1.8  692  268    +14.9       
18 21.10.17 250 (З) 20000 м    ясно 
+9 +3.4 68 +10  1017.9  0.4  692  269    +14.9       
21 21.10.17 230 (ЮЗ) 20000 м    ясно 
+9 +3.2 67 +9  1017.5  -0.3  692  269           
00 22.10.17 270 (З) 20000 м    ясно 
+9.1 +2.3 62 +10  1017.4  -0.1  692  269           
03 22.10.17 тихо ()   20000 м    3/1 1000 м верхняя 
[Sc|Ci sp]
+7.4 +2.9 73 +7  1019  0.9  692  271           
06 22.10.17 090 (В) 20000 м    3/0 верхняя 
[Ci sp]
+12.2 +2.3 51 +12  1017.3  -0.1  692  267  +6.3         
09 22.10.17 160 (Ю) 20000 м    3/0 верхняя 
[Ci sp]
+13.7 +2.3 46 +14  1015.5  -1.1  692  265           
12 22.10.17 тихо ()   20000 м    4/0 верхняя 
[Ci sp]
+11.4 +1.5 51 +11  1016.3  692  267           
15 22.10.17 340 (С) 20000 м    8/0 верхняя 
[Ci sp]
+11 +3 58 +11  1016.5  0.1  692  267    +14.6       
18 22.10.17 320 (СЗ) 20000 м    ясно 
+9.2 +2.7 64 +10  1016.4  -0.7  691  269    +14.6       
21 22.10.17 290 (З) 20000 м    ясно 
+8.3 +2.7 68 +8  1016.9  0.1  691  270           
00 23.10.17 290 (З) 20000 м    ясно 
+7.3 +2.3 71 +7  1015.5  -1.5  690  270           
03 23.10.17 340 (С) 20000 м    3/0 
+6.1 +2.4 77 +7  1015.8  -0.2  690  271           
06 23.10.17 050 (СВ) 20000 м    3/0 верхняя 
[Ci sp]
+15.1 +3.8 47 +16  1012.5  -0.1  690  263  +5.1         
09 23.10.17 090 (В) 20000 м    4/0 верхняя 
[Ci sp]
+15.4 +3.4 45 +16  1011.8  -0.5  689  262           
12 23.10.17 140 (ЮВ) 20000 м    4/0 верхняя 
[Ci sp]
+13.1 +2.3 48 +14  1013.1  0.4  690  265           
Время (UTC), дата Ветер
(°,м/с) 
Видим.   Явления Облачность Т
(°С)
Тd
(°С)
f(%) Тe
(°С)
Pmin
(гПа)
dP
(гПа)
Po
(мм)
O2
(г/м3)
Тmin Tmax R s Состояние
почвы

Для получения пояснительной информации подведите курсор к названию столбца.

ПОГОДА Ачисай - архив

Всё, что Вы хотите узнать о погоде Ачисай - удобно и подробно!

Выберите нужную дату (начиная с 1 января 2015* года) и нажмите кнопку "Найти".
Будут отображены архивные сводки погоды по пункту Ачисай, начиная с указанной даты.


Отображать данные в формате CSV (для использования в таблицах Excel)


Внимание! Наш архив погоды предназначен исключительно для личного некоммерческого использования в познавательных целях. Если Вам необходимы официальные справки о состоянии погоды (для производственных, юридических, коммерческих и т.п. целей), обращайтесь в органы Росгидромета.

*Примечание: данная дата относится к архиву по метеостанциям СССР (Россия, СНГ, Балтия).
Архив по метеостанциям Зарубежной Европы и Азии (кроме Китая) хранится 10 дней, по другим регионам земного шара (Китай, Африка, Америка, Австралия, Океания) - 1 день.

Ачисай - район местоположения метеостанции


Название, широта, долгота, высота метеостанции:
Ачисай 43.6°ш. 68.9°д. 822 м над ур. моря [Казахстан]

Дополнительная информация

В oтличие oт бoльшинства пoгoдных сайтoв мы публикуем пoдрoбную метеoинфoрмацию в детальнoм прoфессиoнальнoм фoрмате.

Характеристики температуры и влажнoсти вoздуха измеряются на высoте 2 м в тени вдали oт зданий и деревьев.
Скoрoсть ветра измеряется на высoте 10 м (на урoвне рoста челoвека скoрoсть ветра ниже в 1.5-2 раза). Если метеoстанция нахoдится в гoрoде или в лесу, тo скoрoсть ветра занижена на 2-4 м/с пo сравнению с oткрытым местoм. Скoрoсть ветра над акватoриями крупных рек и oзёр, а также на вершинах хoлмoв на 2-5 м/с выше, чем в oбычных услoвиях.
Атмoсфернoе давление в разных тoчках местнoсти мoжет значительнo oтличаться oт давления на метеoстанции, в зависимoсти oт услoвий рельефа (при пoдъёме на 10 м давление пoнижается примернo на 1 мм рт.ст.).